GLOBALSTAR M001 1 25162U 98008A 12040.65738086 -.00000084 00000-0 10000-3 0 753 2 25162 52.0033 123.9260 0002125 93.5067 266.6009 12.38010390639772 GLOBALSTAR M004 1 25163U 98008B 12040.77165871 -.00000086 00000-0 10000-3 0 1431 2 25163 51.9984 167.9557 0001823 277.8969 82.1691 12.63180833645464 GLOBALSTAR M002 1 25164U 98008C 12040.72132245 -.00000071 00000-0 10000-3 0 316 2 25164 52.0001 226.2365 0000574 95.3738 264.7155 11.61432643617505 GLOBALSTAR M003 1 25165U 98008D 12040.81943095 -.00000080 00000-0 10000-3 0 1243 2 25165 52.0293 353.8869 0005373 201.9355 158.1260 12.12050207642046 GLOBALSTAR M014 1 25306U 98023A 12040.75979604 -.00000072 00000-0 10000-3 0 313 2 25306 51.9846 251.5764 0002802 57.8770 302.2322 11.65397390622623 GLOBALSTAR M006 1 25307U 98023B 12040.66170671 -.00000086 00000-0 10000-3 0 8606 2 25307 51.9968 224.3799 0002080 87.2334 272.8778 12.62268777636408 GLOBALSTAR M015 1 25308U 98023C 12041.04907066 -.00000075 00000-0 10000-3 0 8772 2 25308 51.9883 43.6626 0001919 129.3474 230.7522 11.79653288633082 GLOBALSTAR M008 1 25309U 98023D 12040.79274852 -.00000083 00000-0 10000-3 0 8302 2 25309 51.9985 293.7617 0002511 322.5761 37.4917 12.35924320635161 GLOBALSTAR M023 1 25621U 99004A 12040.30265001 -.00000086 00000-0 10000-3 0 8338 2 25621 52.0102 139.9468 0012015 153.4226 206.7265 12.62251476599883 GLOBALSTAR M040 1 25622U 99004B 12040.13160294 -.00000086 00000-0 10000-3 0 4659 2 25622 51.9929 137.4950 0001697 83.2049 276.9014 12.61740435599838 GLOBALSTAR M036 1 25623U 99004C 12040.77897960 -.00000083 00000-0 10000-3 0 7691 2 25623 51.9963 213.4783 0001167 98.4297 261.6691 12.31446794598560 GLOBALSTAR M038 1 25624U 99004D 12040.71318735 -.00000085 00000-0 10000-3 0 7731 2 25624 52.0011 122.6574 0002375 113.0224 247.0882 12.52551820600151 GLOBALSTAR M022 1 25649U 99012A 12040.68720889 -.00000079 00000-0 10000-3 0 7058 2 25649 52.0029 225.9384 0000467 46.4065 313.6814 12.02448181589820 GLOBALSTAR M041 1 25650U 99012B 12040.72288171 -.00000083 00000-0 10000-3 0 7705 2 25650 52.0077 15.0900 0000752 93.3386 266.7550 12.33183462593676 GLOBALSTAR M046 1 25651U 99012C 12040.81758001 -.00000081 00000-0 10000-3 0 7753 2 25651 52.0055 4.9435 0000207 96.4257 263.6612 12.19535711593801 GLOBALSTAR M037 1 25652U 99012D 12040.63836841 -.00000086 00000-0 10000-3 0 7815 2 25652 52.0030 271.5770 0001337 149.9140 210.1795 12.62204341595473 GLOBALSTAR M045 1 25676U 99019A 12040.86753183 -.00000086 00000-0 10000-3 0 9069 2 25676 51.9967 268.6561 0002158 74.7299 285.3808 12.62267485593096 GLOBALSTAR M019 1 25677U 99019B 12040.50384492 -.00000083 00000-0 10000-3 0 7687 2 25677 51.9935 41.5549 0001630 171.7453 188.3430 12.35924967591423 GLOBALSTAR M044 1 25678U 99019C 12040.67942141 -.00000093 00000-0 00000+0 0 7548 2 25678 52.0016 65.0964 0001865 141.4937 218.6043 12.26533039589632 GLOBALSTAR M042 1 25679U 99019D 12040.69215578 -.00000082 00000-0 10000-3 0 8463 2 25679 52.0012 136.0085 0001602 89.6477 270.4555 12.22047385589132 GLOBALSTAR M025 1 25770U 99031A 12040.82052831 -.00000086 00000-0 10000-3 0 7402 2 25770 51.9993 313.9366 0000990 48.0645 312.0299 12.62268132584360 GLOBALSTAR M049 1 25771U 99031B 12039.62027201 -.00000062 00000-0 10000-3 0 6102 2 25771 51.9892 87.7185 0001522 189.3865 170.6904 11.12072505574775 GLOBALSTAR M047 1 25772U 99031C 12040.78072402 -.00000086 00000-0 10000-3 0 8136 2 25772 51.9993 313.6268 0000857 58.0093 302.0857 12.62269708584369 GLOBALSTAR M052 1 25773U 99031D 12041.23639628 -.00000086 00000-0 10000-3 0 1275 2 25773 51.9948 310.7952 0000473 68.3978 291.6941 12.62267496584424 GLOBALSTAR M035 1 25851U 99037A 12039.73218804 -.00000061 00000-0 10000-3 0 271 2 25851 51.9955 131.6000 0012709 3.9826 356.1066 11.04487809557337 GLOBALSTAR M032 1 25852U 99037B 12040.73372814 -.00000086 00000-0 10000-3 0 7146 2 25852 52.0037 359.8244 0000884 119.5061 240.5891 12.62261177580590 GLOBALSTAR M051 1 25853U 99037C 12040.77781402 -.00000068 00000-0 10000-3 0 7160 2 25853 51.9825 283.8533 0002034 339.8241 20.2488 11.42118471575209 GLOBALSTAR M030 1 25854U 99037D 12040.85280439 -.00000086 00000-0 10000-3 0 7265 2 25854 52.0031 359.6503 0000431 145.3779 214.7121 12.62288416580609 GLOBALSTAR M048 1 25872U 99041A 12040.54833852 -.00000066 00000-0 10000-3 0 6008 2 25872 51.9436 30.4506 0001536 204.4920 155.5813 11.33720611571723 GLOBALSTAR M026 1 25873U 99041B 12040.78604741 -.00000086 00000-0 10000-3 0 7483 2 25873 52.0071 46.4019 0001618 144.3394 215.7583 12.62290674578718 GLOBALSTAR M043 1 25874U 99041C 12039.93100429 -.00000065 00000-0 10000-3 0 6445 2 25874 51.9440 305.7779 0011499 275.8315 84.1176 11.25627916573668 GLOBALSTAR M028 1 25875U 99041D 12040.44998412 -.00000086 00000-0 10000-3 0 7322 2 25875 52.0055 46.6782 0001119 137.2144 222.8806 12.62286074578672 GLOBALSTAR M024 1 25883U 99043A 12040.86368761 -.00000062 00000-0 10000-3 0 6656 2 25883 51.9982 222.7530 0002356 59.1792 300.9234 11.10110958573331 GLOBALSTAR M027 1 25884U 99043B 12040.64156172 -.00000086 00000-0 10000-3 0 7224 2 25884 52.0083 92.5875 0001727 138.5920 221.5078 12.62302002575817 GLOBALSTAR M054 1 25885U 99043C 12040.30842286 -.00000067 00000-0 10000-3 0 6910 2 25885 52.0171 29.1827 0005632 340.7819 19.2749 11.39154707563580 GLOBALSTAR M053 1 25886U 99043D 12040.55551084 -.00000065 00000-0 10000-3 0 4816 2 25886 52.0011 65.3930 0002333 141.6388 218.4582 11.27573876569454 GLOBALSTAR M058 1 25907U 99049A 12040.79028807 -.00000082 00000-0 10000-3 0 7030 2 25907 51.9954 224.2313 0001301 110.0688 250.0300 12.24258981569635 GLOBALSTAR M050 1 25908U 99049B 12040.78543260 -.00000079 00000-0 10000-3 0 6467 2 25908 51.9973 180.7056 0008562 42.0421 318.1092 12.07326266563880 GLOBALSTAR M033 1 25909U 99049C 12040.58226881 -.00000086 00000-0 10000-3 0 7271 2 25909 51.9974 89.9172 0002257 152.1186 207.9841 12.62287175572048 GLOBALSTAR M055 1 25910U 99049D 12040.83581974 -.00000083 00000-0 10000-3 0 7163 2 25910 52.0042 276.9443 0008065 78.9849 281.1909 12.29270678568756 GLOBALSTAR M057 1 25943U 99058A 12039.07017647 -.00000085 00000-0 10000-3 0 6413 2 25943 51.9994 261.0462 0002073 86.9405 273.1685 12.48714117567250 GLOBALSTAR M059 1 25944U 99058B 12040.78054643 -.00000086 00000-0 10000-3 0 7121 2 25944 52.0031 225.3333 0002322 91.7909 268.3216 12.62269331568059 GLOBALSTAR M056 1 25945U 99058C 12040.76317025 -.00000086 00000-0 10000-3 0 488 2 25945 51.9961 178.9447 0001841 85.0451 275.0627 12.62275315568782 GLOBALSTAR M031 1 25946U 99058D 12040.98138913 -.00000086 00000-0 10000-3 0 7386 2 25946 51.9953 178.5950 0001754 87.5625 272.5442 12.62273674568831 GLOBALSTAR M039 1 25961U 99062A 12040.83258854 -.00000086 00000-0 10000-3 0 34 2 25961 51.9969 357.9756 0000704 146.9418 213.1490 12.62272143564432 GLOBALSTAR M034 1 25962U 99062B 12040.08214856 -.00000081 00000-0 10000-3 0 3573 2 25962 51.9904 209.9494 0002008 82.8741 277.2349 12.15664748560583 GLOBALSTAR M029 1 25963U 99062C 12040.75360685 -.00000086 00000-0 10000-3 0 347 2 25963 51.9938 133.2973 0001858 148.1289 211.9686 12.62268295574131 GLOBALSTAR M061 1 25964U 99062D 12040.74824450 -.00000074 00000-0 10000-3 0 7043 2 25964 51.9774 205.6171 0006729 147.3939 212.7302 11.76697451547395 GLOBALSTAR M063 1 26081U 00008A 12040.78296857 -.00000086 00000-0 10000-3 0 7856 2 26081 51.9970 179.3236 0001949 89.4746 270.6340 12.62310843562175 GLOBALSTAR M062 1 26082U 00008B 12040.54983862 -.00000084 00000-0 10000-3 0 6666 2 26082 52.0068 30.8831 0000154 168.0309 192.0551 12.42958491552528 GLOBALSTAR M060 1 26083U 00008C 12040.96519336 -.00000081 00000-0 10000-3 0 7583 2 26083 52.0041 22.9815 0002518 248.3943 111.6649 12.17474133558547 GLOBALSTAR M064 1 26084U 00008D 12040.80523563 -.00000086 00000-0 10000-3 0 9952 2 26084 52.0046 181.0803 0001525 113.3490 246.7536 12.62272415580136 GLOBALSTAR M065 1 31571U 07020A 12040.80275179 -.00000074 00000-0 16701-3 0 4346 2 31571 51.9934 313.9022 0001203 179.2585 180.8283 12.62263839217915 GLOBALSTAR M069 1 31573U 07020C 12040.83016172 -.00000086 00000-0 10000-3 0 7237 2 31573 51.9964 269.1591 0000214 139.8193 220.2695 12.62267139218656 GLOBALSTAR M072 1 31574U 07020D 12041.19167172 -.00000106 00000-0 -13164-4 0 4332 2 31574 52.0108 359.7615 0000872 195.0322 165.0498 12.62269034217203 GLOBALSTAR M071 1 31576U 07020F 12040.01627768 -.00000086 00000-0 10000-3 0 7509 2 31576 52.0078 272.9127 0000739 80.7457 279.3487 12.62260529218541 GLOBALSTAR M067 1 32263U 07048A 12040.65402259 -.00000104 00000-0 00000+0 0 4041 2 32263 51.9755 132.7010 0001470 111.9542 248.1475 12.62270785200316 GLOBALSTAR M070 1 32264U 07048B 12040.69908275 -.00000086 00000-0 10000-3 0 3486 2 32264 51.9759 223.1311 0000958 71.6096 288.4873 12.62266499198802 GLOBALSTAR M066 1 32265U 07048C 12040.62203682 -.00000104 00000-0 00000+0 0 4016 2 32265 51.9687 87.4383 0001792 138.3009 221.7994 12.62268796201020 GLOBALSTAR M068 1 32266U 07048D 12040.74843457 -.00000086 00000-0 10000-3 0 4092 2 32266 51.9857 43.9037 0001551 137.7751 222.3231 12.62267465201802 GLOBALSTAR M079 1 37188U 10054A 12040.75851894 -.00000086 00000-0 10000-3 0 4120 2 37188 52.0023 224.4192 0000842 90.2955 269.8003 12.62269347 61309 GLOBALSTAR M074 1 37189U 10054B 12040.71885629 -.00000102 00000-0 85320-5 0 4083 2 37189 52.0002 224.7114 0000991 122.9215 237.1757 12.62270355 61294 GLOBALSTAR M076 1 37190U 10054C 12040.02658930 -.00000086 00000-0 10000-3 0 4185 2 37190 52.0017 226.5004 0000808 139.8703 220.2224 12.62264934 61216 GLOBALSTAR M077 1 37191U 10054D 12040.50870102 -.00000086 00000-0 10000-3 0 2746 2 37191 52.0060 180.6174 0001449 114.8025 245.2984 12.62279746 62022 GLOBALSTAR M075 1 37192U 10054E 12040.13742407 -.00000086 00000-0 10000-3 0 4227 2 37192 51.9970 271.2522 0001128 67.1606 292.9386 12.62271301 60464 GLOBALSTAR M073 1 37193U 10054F 12039.89457516 -.00000087 00000-0 96304-4 0 4158 2 37193 52.0045 182.0730 0001391 93.7812 266.3214 12.62269839 61948 GLOBALSTAR M083 1 37739U 11033A 12040.76850708 -.00000047 00000-0 10000-3 0 1847 2 37739 51.9958 252.4605 0027858 34.9534 325.3205 13.74242016 29405 GLOBALSTAR M088 1 37740U 11033B 12040.49109280 -.00000086 00000-0 10000-3 0 1877 2 37740 51.9741 45.1360 0001213 113.0114 247.0875 12.62267016 26821 GLOBALSTAR M091 1 37741U 11033C 12040.83475036 -.00000104 00000-0 00000+0 0 1923 2 37741 52.0020 358.9764 0000316 137.2509 222.8383 12.62271111 27621 GLOBALSTAR M085 1 37742U 11033D 12040.82286576 -.00000086 00000-0 10000-3 0 1971 2 37742 51.9902 314.3721 0000644 54.5278 305.5666 12.62265374 28365 GLOBALSTAR M081 1 37743U 11033E 12040.76329560 -.00000086 00000-0 10000-3 0 1932 2 37743 51.9991 314.3051 0001225 125.1212 234.9766 12.62265343 28394 GLOBALSTAR M089 1 37744U 11033F 12040.73105548 -.00000086 00000-0 10000-3 0 1871 2 37744 51.9949 269.5686 0000624 102.5503 257.5434 12.62267608 29106 GLOBALSTAR M084 1 38040U 11080A 12040.43635550 -.00000060 00000-0 69676-4 0 483 2 38040 52.0036 200.3761 0004492 356.7100 3.3814 13.91506602 5954 GLOBALSTAR M080 1 38041U 11080B 12040.43337886 -.00000063 00000-0 67210-4 0 457 2 38041 52.0036 200.3601 0004899 348.1570 11.9260 13.91629606 5955 GLOBALSTAR M082 1 38042U 11080C 12040.71095485 -.00000193 00000-0 -34414-4 0 472 2 38042 52.0026 199.2124 0005984 346.9390 13.1366 13.91915539 5991 GLOBALSTAR M092 1 38043U 11080D 12040.92057037 -.00000159 00000-0 -77248-5 0 472 2 38043 52.0034 198.3592 0006809 355.8419 4.2456 13.92128828 6011 GLOBALSTAR M090 1 38044U 11080E 12040.70418069 -.00000219 00000-0 -54950-4 0 454 2 38044 52.0028 199.1784 0006879 350.2471 9.8314 13.92161059 5983 GLOBALSTAR M086 1 38045U 11080F 12039.99888306 -.00000157 00000-0 -69827-5 0 450 2 38045 52.0033 201.9891 0004934 356.2243 3.8642 13.91746706 5899